STARLINK-31539 (59539 NORAD) Tracking and Keplerian Element Data

This shows tracking and keplerian element data for the satellite.

Feedback or suggestion? Click here.




ElementValue
Catalog59539
NameSTARLINK-31539
Epoch Orbit889
Epoch Day160.03915564
Epoch Year2024
RAAN27.4705
Inclination42.9999
Eccentricity0.0001384
Argument of Perigee270.403
Mean Anonmoly89.6668
Mean Motion15.40708108
Decay Rate8.033E-05
L11 59539U 24074F 24160.03915564 .00008033 00000+0 19930-3 0 9992
L22 59539 42.9999 27.4705 0001384 270.4030 89.6668 15.40708108 8894



Live tracking and technical data element details for STARLINK-31539 (NORAD 59539). STARLINK-31539 can be tracked NOW for your location showing map with azimuth and elevation plus other details from your city location.







IsCatalogInMostPopularTable: catalog: 59539, numindb: 12
Update: records affected: 1



GetName: 59539 STARLINK-31539

Hit Count: updated at: Fri, 14 Jun 2024 19:34:51 GMT